Date,TemperatureHighF,TemperatureAvgF,TemperatureLowF,DewpointHighF,DewpointAvgF,DewpointLowF,HumidityHigh,HumidityAvg,HumidityLow,PressureMaxIn,PressureMinIn,WindSpeedMaxMPH,WindSpeedAvgMPH,GustSpeedMaxMPH,PrecipitationSumIn
2013-11-1,52.5,50.3,49.3,50.0,49.1,48.0,98,95,89,30.44,29.98,15,7,18,0.00
2013-11-2,54.6,47.4,42.4,50.0,45.6,42.0,98,93,83,30.05,29.54,31,9,49,0.00
2013-11-3,49.9,46.0,42.5,43.0,41.0,39.0,93,83,74,30.31,30.05,7,2,14,0.00
2013-11-4,47.2,43.5,41.3,43.0,39.9,38.0,95,87,78,30.38,30.26,11,3,14,0.00
2013-11-5,44.2,42.0,39.8,44.0,41.6,39.0,99,98,88,30.45,30.23,13,4,19,0.00
2013-11-6,49.7,46.4,43.7,46.0,44.0,43.0,98,91,81,30.52,30.17,18,4,22,0.00
2013-11-7,51.8,49.1,45.1,50.0,46.8,44.0,97,91,84,30.17,29.82,35,14,39,0.00
2013-11-8,52.9,49.1,47.2,46.0,44.3,41.0,92,84,74,30.34,30.11,20,9,26,0.00
2013-11-9,48.0,46.4,44.7,45.0,43.7,41.0,95,90,84,30.33,30.28,16,4,17,0.00
2013-11-10,48.0,46.4,45.0,45.0,44.1,43.0,94,92,87,30.37,30.32,5,1,8,0.00
2013-11-11,53.2,49.7,46.5,45.0,43.0,40.0,94,78,66,30.36,30.18,20,8,22,0.00
2013-11-12,57.2,53.1,50.4,51.0,48.4,43.0,96,84,61,30.50,30.16,33,13,46,0.00
2013-11-13,53.8,51.1,48.4,50.0,47.8,46.0,95,88,79,30.58,30.48,20,12,23,0.00
2013-11-14,54.3,48.4,45.6,48.0,44.5,39.0,96,86,71,30.48,30.23,9,2,11,0.00
2013-11-15,49.9,45.4,42.6,46.0,42.6,40.0,96,90,78,30.23,29.46,32,15,43,0.00
2013-11-16,47.7,45.4,43.5,40.0,37.1,34.0,82,73,65,29.91,29.52,23,8,26,0.00
2013-11-17,49.9,46.2,43.1,45.0,41.7,35.0,93,84,69,30.05,29.92,24,15,30,0.00
2013-11-18,47.8,45.3,43.3,45.0,43.8,43.0,98,95,84,30.06,29.72,15,5,17,0.00
2013-11-19,46.2,42.0,37.7,43.0,32.1,19.0,98,70,34,30.29,29.75,12,4,22,0.00
2013-11-20,41.2,37.2,34.0,31.0,28.1,26.0,79,70,57,30.76,30.30,10,4,14,0.00
2013-11-21,40.0,36.1,32.3,32.0,28.5,26.0,81,74,61,30.91,30.76,10,4,14,0.00
2013-11-22,42.5,39.7,36.0,38.0,34.0,28.0,88,80,69,30.90,30.68,10,3,13,0.00
2013-11-23,45.0,41.9,39.7,41.0,37.8,33.0,95,85,75,30.68,30.42,11,3,17,0.00
2013-11-24,45.5,43.3,40.7,43.0,40.8,38.0,96,91,75,30.46,30.37,9,2,9,0.00
2013-11-25,47.2,44.0,41.7,43.0,41.7,40.0,97,91,81,30.50,30.46,7,1,8,0.00
2013-11-26,49.7,43.1,39.3,45.0,40.7,39.0,98,91,80,30.47,30.30,10,2,13,0.00
2013-11-27,50.1,46.0,43.8,44.0,41.6,40.0,94,85,71,30.29,30.16,11,3,16,0.00
2013-11-28,49.1,45.5,42.7,45.0,42.4,40.0,95,89,80,30.36,30.23,4,2,7,0.00
2013-11-29,48.6,46.7,45.5,46.0,45.1,44.0,96,94,89,30.49,30.36,17,8,22,0.00
2013-11-30,48.1,46.6,45.4,47.0,45.3,44.0,97,95,89,30.49,30.23,23,13,27,0.00